Regional Weather Roundup
Issued by NWS

Home | Current Version | Previous Version | Text Only | Print | Product List | Glossary Off
Versions: 1 2 3 4 5 6 7 8 9 10 11 12 13 14 15 16 17 18 19 20 21 22 23 24 25 26 27 28 29 30 31 32 33 34 35 36 37 38 39 40 41 42 43 44 45 46 47 48 49 50

000
ASUS43 KBIS 300802
RWRND

NORTH DAKOTA REGIONAL WEATHER ROUNDUP
NATIONAL WEATHER SERVICE BISMARCK ND
300 AM CDT THU JUL 30 2015

NOTE: "FAIR" INDICATES FEW OR NO CLOUDS BELOW 12,000 FEET WITH NO
SIGNIFICANT WEATHER AND/OR OBSTRUCTIONS TO VISIBILITY.


NDZ001>003-009>011-017-300900-
NORTHWEST NORTH DAKOTA

CITY           SKY/WX    TMP DP  RH WIND       PRES   REMARKS
WILLISTON      CLEAR     60  52  74 N5        30.13R
MINOT          PTCLDY    61  51  70 SW8       30.05R
MINOT AFB      MOCLDY    58  57  96 W9        30.05R
$$

NDZ018>021-031>035-040>046-300900-
SOUTHWEST NORTH DAKOTA

CITY           SKY/WX    TMP DP  RH WIND       PRES   REMARKS
BISMARCK       CLEAR     56  50  80 W3        30.10S
DICKINSON      CLEAR     52  45  77 S3        30.13S
GARRISON         N/A     58  52  80 W8        30.08R
HETTINGER ARPT CLEAR     48  44  86 NW3       30.18S
$$

NDZ004>008-012>016-024-026-027-054-300900-
NORTHEAST NORTH DAKOTA

CITY           SKY/WX    TMP DP  RH WIND       PRES   REMARKS
GRAND FORKS    CLEAR     64  57  78 W9        29.93S
GRND FRKS AFB  CLEAR     63  57  81 W7        29.95R
DEVILS LAKE    CLEAR     63  52  67 W12       29.99S
$$

NDZ022-023-025-028>030-036>039-047>053-300900-
SOUTHEAST NORTH DAKOTA

CITY           SKY/WX    TMP DP  RH WIND       PRES   REMARKS
FARGO          CLEAR     62  55  77 W10       29.97S
JAMESTOWN      CLEAR     61  53  75 W8        30.04S
$$




USA.gov is the U.S. government's official web portal to all federal, state and local government web resources and services.